Time,TemperatureF,DewpointF,PressureIn,WindDirection,WindDirectionDegrees,WindSpeedMPH,WindSpeedGustMPH,Humidity,HourlyPrecipIn,Conditions,Clouds,dailyrainin,SolarRadiationWatts/m^2,SoftwareType,DateUTC
2013-04-12 00:00:00,70.9,68.8,29.90,SE,136,1.0,14.0,93,0.00,,,0.09,0,Wunderground v.1.15,2013-04-12 04:00:00,
2013-04-12 01:00:00,70.0,68.5,29.91,SE,124,2.0,14.0,95,0.00,,,0.00,0,Wunderground v.1.15,2013-04-12 05:00:00,
2013-04-12 02:00:00,70.3,69.1,29.91,SE,134,3.0,14.0,96,0.00,,,0.00,0,Wunderground v.1.15,2013-04-12 06:00:00,
2013-04-12 03:00:00,71.4,69.9,29.91,SSE,165,4.0,14.0,95,0.00,,,0.00,0,Wunderground v.1.15,2013-04-12 07:00:00,
2013-04-12 04:00:00,71.8,70.0,29.89,SSE,159,4.0,14.0,94,0.00,,,0.00,0,Wunderground v.1.15,2013-04-12 08:00:00,
2013-04-12 05:00:00,71.5,69.7,29.89,SSE,165,3.0,14.0,94,0.00,,,0.00,0,Wunderground v.1.15,2013-04-12 09:00:00,
2013-04-12 06:00:00,71.1,69.6,29.89,South,186,4.0,14.0,95,0.00,,,0.00,0,Wunderground v.1.15,2013-04-12 10:00:00,
2013-04-12 07:00:00,71.6,70.1,29.89,SSE,163,4.0,14.0,95,0.00,,,0.00,0,Wunderground v.1.15,2013-04-12 11:00:00,
2013-04-12 08:00:00,71.5,70.3,29.91,SSE,159,5.0,14.0,96,0.31,,,0.26,44,Wunderground v.1.15,2013-04-12 12:00:00,
2013-04-12 09:00:00,72.4,71.2,29.90,South,180,7.0,14.0,96,2.56,,,0.77,107,Wunderground v.1.15,2013-04-12 13:00:00,
2013-04-12 10:00:00,74.7,72.2,29.90,SSW,212,9.0,14.0,92,0.00,,,0.79,186,Wunderground v.1.15,2013-04-12 14:00:00,
2013-04-12 11:00:00,77.1,72.6,29.91,South,174,11.0,21.0,86,0.00,,,0.79,299,Wunderground v.1.15,2013-04-12 15:00:00,
2013-04-12 12:00:00,78.5,71.8,29.91,SSW,206,12.0,21.0,80,0.00,,,0.79,276,Wunderground v.1.15,2013-04-12 16:00:00,
2013-04-12 13:00:00,81.1,72.0,29.88,South,190,16.0,21.0,74,0.00,,,0.79,432,Wunderground v.1.15,2013-04-12 17:00:00,
2013-04-12 14:00:00,81.6,71.3,29.86,SSW,208,15.0,21.0,71,0.00,,,0.79,371,Wunderground v.1.15,2013-04-12 18:00:00,
2013-04-12 16:00:00,81.9,69.9,29.83,SSW,209,12.0,21.0,67,0.00,,,0.79,237,Wunderground v.1.15,2013-04-12 20:00:00,
2013-04-12 17:00:00,81.3,68.9,29.82,South,184,15.0,21.0,66,0.00,,,0.79,151,Wunderground v.1.15,2013-04-12 21:00:00,
2013-04-12 18:00:00,80.1,68.2,29.82,SW,215,7.0,21.0,67,0.00,,,0.79,98,Wunderground v.1.15,2013-04-12 22:00:00,
2013-04-12 19:00:00,79.0,68.8,29.85,SSW,205,6.0,21.0,71,0.00,,,0.79,40,Wunderground v.1.15,2013-04-12 23:00:00,
2013-04-12 20:00:00,77.0,68.5,29.86,SSW,202,7.0,21.0,75,0.00,,,0.79,0,Wunderground v.1.15,2013-04-13 00:00:00,
2013-04-12 21:00:00,74.2,68.7,29.89,SSW,202,3.0,21.0,83,0.00,,,0.79,0,Wunderground v.1.15,2013-04-13 01:00:00,
2013-04-12 22:00:00,71.0,67.9,29.89,SSW,202,2.0,21.0,90,0.00,,,0.79,0,Wunderground v.1.15,2013-04-13 02:00:00,
2013-04-12 23:00:00,69.0,65.9,29.91,SSW,202,0.0,21.0,90,0.00,,,0.79,0,Wunderground v.1.15,2013-04-13 03:00:00,